FW7330 Weather Reports


Display with metric or nautical units.
time (UTC)temp
F
wind
direction
speed
MPH
gust
MPH
rain 1hr
in
rain 24hr
in
rain mn
in
humidity
%
barometer
mb
20260507090155 54 279 12.0 23.0 0.00 0.00 0.00 48 1020.5
20260507085006 54 247 9.0 14.0 0.00 0.00 0.00 47 1020.1
20260507083816 55 219 11.0 25.0 0.00 0.00 0.00 46 1019.9
20260507082626 55 230 13.0 19.0 0.00 0.00 0.00 46 1019.8
20260507081436 55 212 8.0 18.0 0.00 0.00 0.00 46 1019.5
20260507080143 55 217 5.0 17.0 0.00 0.00 0.00 46 1019.0
20260507075034 55 235 8.0 17.0 0.00 0.00 0.00 46 1019.1
20260507073803 56 258 6.0 18.0 0.00 0.00 0.00 45 1018.9
20260507072613 56 249 10.0 18.0 0.00 0.00 0.00 44 1018.5
20260507071423 56 223 8.0 15.0 0.00 0.00 0.00 44 1018.4
20260507070130 57 225 3.0 7.0 0.00 0.00 0.00 44 1018.2
20260507064940 57 216 8.0 15.0 0.00 0.00 0.00 44 1018.2
20260507063749 58 232 7.0 15.0 0.00 0.00 0.00 43 1018.1
20260507062559 58 223 7.0 24.0 0.00 0.00 0.00 43 1018.1
20260507061409 58 234 8.0 11.0 0.00 0.00 0.00 43 1017.9
20260507060219 58 220 9.0 21.0 0.00 0.00 0.00 43 1017.8
20260507054925 58 207 10.0 13.0 0.00 0.00 0.00 43 1017.7
20260507053735 58 179 2.0 9.0 0.00 0.00 0.00 45 1017.9
20260507052648 59 224 9.0 16.0 0.00 0.00 0.00 41 1017.7
20260507051354 60 219 12.0 19.0 0.00 0.00 0.00 40 1017.6
20260507050205 59 209 10.0 19.0 0.00 0.00 0.00 42 1017.7
20260507045055 60 219 10.0 18.0 0.00 0.00 0.00 38 1017.3
20260507043721 61 219 7.0 15.0 0.00 0.00 0.00 39 1017.2
20260507042635 61 181 8.0 17.0 0.00 0.00 0.00 39 1017.0
20260507041341 60 247 10.0 22.0 0.00 0.00 0.00 38 1017.0
20260507040151 60 210 7.0 19.0 0.00 0.00 0.00 38 1016.9
20260507035001 60 231 9.0 16.0 0.00 0.00 0.00 38 1017.0
20260507033748 60 243 8.0 16.0 0.00 0.00 0.00 38 1016.8
20260507032621 60 199 10.0 17.0 0.00 0.00 0.00 37 1016.9
20260507031430 61 233 7.0 18.0 0.00 0.00 0.00 37 1016.9
20260507030217 60 242 14.0 29.0 0.00 0.00 0.00 37 1016.8
20260507024948 61 213 7.0 11.0 0.00 0.00 0.00 38 1016.8
20260507023757 60 221 15.0 19.0 0.00 0.00 0.00 38 1016.8
20260507022607 60 219 8.0 18.0 0.00 0.00 0.00 38 1016.7
20260507021417 60 205 12.0 21.0 0.00 0.00 0.00 37 1016.6
20260507020227 61 196 10.0 21.0 0.00 0.00 0.00 35 1016.7
20260507014934 61 245 9.0 21.0 0.00 0.00 0.00 35 1016.8
20260507013744 61 242 9.0 25.0 0.00 0.00 0.00 34 1016.8
20260507012657 60 197 11.0 23.0 0.00 0.00 0.00 34 1017.0
20260507011404 60 237 15.0 22.0 0.00 0.00 0.00 35 1016.9
20260507010201 60 241 13.0 26.0 0.00 0.00 0.00 32 1017.1
20260507005011 61 231 10.0 25.0 0.00 0.00 0.00 31 1017.0
20260507003717 61 231 10.0 21.0 0.00 0.00 0.00 31 1017.0
20260507002631 61 244 8.0 16.0 0.00 0.00 0.00 30 1017.1
20260507001441 61 230 6.0 11.0 0.00 0.00 0.00 31 1017.0
20260507000227 60 251 8.0 16.0 0.00 0.00 0.00 35 1017.2
20260506234958 59 207 6.0 14.0 0.00 0.00 0.00 40 1017.2
20260506233807 59 225 9.0 18.0 0.00 0.00 0.00 44 1017.3
20260506232617 60 218 9.0 24.0 0.00 0.00 0.00 48 1017.3
20260506231426 60 218 6.0 15.0 0.00 0.00 0.00 56 1017.1
20260506230237 62 215 9.0 18.0 0.00 0.00 0.00 57 1016.8
20260506224943 62 212 7.0 14.0 0.00 0.00 0.00 58 1016.4
20260506223753 61 235 4.0 11.0 0.00 0.00 0.00 59 1016.1
20260506222603 60 222 7.0 10.0 0.00 0.00 0.00 60 1015.7
20260506221413 60 298 4.0 7.0 0.00 0.00 0.00 61 1015.4
20260506220222 60 247 4.0 9.0 0.00 0.00 0.00 60 1015.5
20260506214928 60 223 11.0 18.0 0.00 0.00 0.00 60 1015.5
20260506213737 60 189 6.0 17.0 0.00 0.00 0.00 60 1015.3
20260506212650 59 208 7.0 21.0 0.00 0.00 0.00 60 1015.2
20260506211436 59 248 8.0 22.0 0.00 0.00 0.00 60 1014.9
20260506210207 59 231 4.0 14.0 0.00 0.00 0.00 60 1014.9
20260506205058 59 289 7.0 14.0 0.00 0.00 0.00 60 1014.8
20260506203725 59 224 4.0 21.0 0.00 0.00 0.00 60 1014.6
20260506202636 58 206 5.0 9.0 0.00 0.00 0.00 60 1014.5
20260506201446 59 209 3.0 11.0 0.00 0.00 0.00 59 1014.4
20260506200153 59 161 5.0 11.0 0.00 0.00 0.00 58 1014.5
20260506195003 58 189 5.0 11.0 0.00 0.00 0.00 59 1014.6
20260506193853 59 208 6.0 11.0 0.00 0.00 0.00 57 1014.7
20260506192623 58 196 6.0 13.0 0.00 0.00 0.00 58 1014.8
20260506191433 59 192 6.0 9.0 0.00 0.00 0.00 56 1014.8
20260506190141 57 0.0 4.0 0.00 0.00 0.00 58 1014.9
20260506184951 58 223 3.0 11.0 0.00 0.00 0.00 56 1014.8
20260506183800 59 250 13.0 26.0 0.00 0.00 0.00 54 1015.1
20260506182507 59 187 10.0 21.0 0.00 0.00 0.00 55 1015.1
20260506181419 59 209 10.0 27.0 0.00 0.00 0.00 53 1015.0
20260506180229 59 213 11.0 29.0 0.00 0.00 0.00 54 1014.7
20260506174935 59 169 12.0 18.0 0.00 0.00 0.00 52 1014.7
20260506173746 58 305 4.0 9.0 0.00 0.00 0.00 57 1014.7
20260506172555 59 212 17.0 26.0 0.00 0.00 0.00 52 1014.6
20260506171404 58 234 12.0 21.0 0.00 0.00 0.00 56 1014.7
20260506170213 57 263 9.0 14.0 0.00 0.00 0.00 59 1015.0
20260506165023 57 241 7.0 11.0 0.00 0.00 0.00 59 1015.2
20260506163729 58 238 11.0 23.0 0.00 0.00 0.00 60 1015.5
20260506161452 58 233 11.0 21.0 0.00 0.00 0.00 62 1015.7
20260506160158 59 232 10.0 16.0 0.00 0.00 0.00 60 1016.1
20260506155007 57 284 4.0 7.0 0.00 0.00 0.00 66 1015.8
20260506153817 57 271 5.0 9.0 0.00 0.00 0.00 66 1015.9
20260506152523 59 249 5.0 10.0 0.00 0.00 0.00 62 1016.2
20260506151516 59 274 7.0 9.0 0.00 0.00 0.00 60 1016.3
20260506150142 59 248 4.0 8.0 0.00 0.00 0.00 63 1016.4
20260506145032 59 287 6.0 15.0 0.00 0.00 0.00 62 1016.4
20260506143800 59 269 7.0 10.0 0.00 0.00 0.00 63 1016.4
20260506142507 59 263 7.0 10.0 0.00 0.00 0.00 64 1016.6
20260506141501 60 246 7.0 13.0 0.00 0.00 0.00 64 1016.8
20260506140230 60 267 6.0 10.0 0.00 0.00 0.00 65 1016.8
20260506134938 60 231 7.0 15.0 0.00 0.00 0.00 65 1017.0
20260506133747 60 213 5.0 15.0 0.00 0.00 0.00 66 1017.0
20260506132556 59 102 1.0 3.0 0.00 0.00 0.00 70 1017.1
20260506131407 59 272 4.0 6.0 0.00 0.00 0.00 69 1017.3
20260506130217 59 266 2.0 7.0 0.00 0.00 0.00 71 1017.4
20260506125106 55 273 3.0 8.0 0.00 0.00 0.00 80 1017.5
20260506123733 53 224 0.0 1.0 0.00 0.00 0.00 94 1017.6
20260506122543 53 284 0.0 1.0 0.00 0.00 0.00 94 1017.8
20260506121456 53 300 1.0 3.0 0.00 0.00 0.00 94 1018.0
20260506120204 53 261 0.0 2.0 0.00 0.00 0.00 94 1018.2
20260506115013 54 165 1.0 1.0 0.00 0.00 0.00 94 1018.2
20260506113718 54 0.0 0.0 0.00 0.00 0.00 94 1018.3
20260506112528 54 140 1.0 2.0 0.00 0.00 0.00 94 1018.5
20260506111441 55 162 1.0 1.0 0.00 0.00 0.00 93 1018.5
20260506110228 55 0.0 0.0 0.00 0.00 0.00 93 1018.6
20260506105038 55 0.0 1.0 0.00 0.00 0.00 93 1018.7
20260506103809 55 142 1.0 1.0 0.00 0.00 0.00 92 1018.5
20260506102515 57 202 0.0 2.0 0.00 0.00 0.00 92 1018.7
20260506101429 57 136 2.0 3.0 0.00 0.00 0.00 91 1018.7
20260506100239 57 145 1.0 2.0 0.00 0.00 0.00 91 1018.9
20260506094944 57 163 1.0 2.0 0.00 0.00 0.00 90 1018.8
20260506093754 57 0.0 0.0 0.00 0.00 0.00 89 1018.9
20260506092605 58 172 0.0 1.0 0.00 0.00 0.00 88 1018.8
20260506091415 59 169 1.0 2.0 0.00 0.00 0.00 88 1018.9